Regional Weather Roundup
Issued by NWS

Home | Current Version | Previous Version | Text Only | Print | Product List | Glossary Off
Versions: 1 2 3 4 5 6 7 8 9 10 11 12 13 14 15 16 17 18 19 20 21 22 23 24 25 26 27 28 29 30 31 32 33 34 35 36 37 38 39 40 41 42 43 44 45 46 47 48 49 50

000
ASUS45 KSLC 240710
RWRUT

UTAH REGIONAL WEATHER ROUNDUP
NATIONAL WEATHER SERVICE SALT LAKE CITY UT
1200 AM MST WED DEC 24 2014

UTZ001>011-023>025-240800-

NORTHERN UTAH

CITY           SKY/WX    TMP DP  RH WIND       PRES   REMARKS
BRIGHAM CITY   CLOUDY    28  23  80 CALM      30.33F
HILL AFB         N/A     27  15  61 E9        30.31F WCI  17
LOGAN            N/A     23  19  85 E3        30.32F
OGDEN            N/A     27  17  66 S8        30.31F WCI  19
PROVO AIRPORT    N/A     27  18  69 SE6       30.34S WCI  20
SALT LAKE CITY   N/A     28  17  63 SE7       30.32F WCI  21
VERNAL           N/A     20  11  68 W5        30.26S WCI  13
WENDOVER         N/A     27  18  69 CALM      30.30F
HEBER CITY       N/A     19  16  86 CALM      30.31F
WEST JORDAN    CLEAR     27  21  80 S7        30.32F WCI  19

$$

UTZ012>022-026-027-240800-

SOUTHERN/CENTRAL UTAH

CITY           SKY/WX    TMP DP  RH WIND       PRES   REMARKS
BLANDING         N/A     24  14  67 CALM      30.31S
BRYCE CANYON     N/A     18  12  77 W9        30.26F WCI   7
CEDAR CITY       N/A     17  12  80 CALM      30.30R
DELTA            N/A     23  20  91 CALM      30.32F
MILFORD          N/A     22  14  71 SW7       30.31F WCI  13
MOAB/CYNLANDS    N/A     25  19  78 CALM      30.26F
PRICE            N/A     24   9  52 E5        30.23S WCI  18
ST GEORGE        N/A     37   9  30 S3        30.31R
KANAB            N/A     27  18  69 E7        30.31F WCI  19

$$

REGIONAL REPORTS     COLORADO/ARIZONA

CITY           SKY/WX    TMP DP  RH WIND       PRES   REMARKS
CRAIG, CO        N/A      2  -3  80 W3        30.26F
GRAND JUNCTION   N/A     22  16  78 SE8       30.28F WCI  12
RIFLE            N/A     16   8  71 SE6       30.30F WCI   7
MONTROSE         N/A     18  11  74 SE10      30.31S WCI   6
CORTEZ           N/A     24   8  50 NW7       30.21F WCI  16
PAGE, AZ         N/A     34  10  37 CALM      30.27F
GRAND CANYON     N/A     16  11  80 CALM      30.27S
KINGMAN          N/A     31  18  58 E6        30.26S WCI  25
FLAGSTAFF        N/A     28   1  31 E13G26    30.22F WCI  17

$$

REGIONAL REPORTS    NEVADA/IDAHO/WYOMING

CITY           SKY/WX    TMP DP  RH WIND       PRES   REMARKS
LAS VEGAS, NV    N/A     45  23  42 S9        30.24R
ELY              N/A     21  18  88 S10       30.29F WCI  10
ELKO             N/A     25  22  88 CALM      30.25F
POCATELLO, ID  MOCLDY    33  21  61 S9        30.24F WCI  25
BURLEY         CLOUDY    31  25  78 CALM      30.22F
EVANSTON, WY     N/A     15  11  83 SW9       30.23F WCI   3
ROCK SPRINGS     N/A     18   9  68 SW21      30.17  WCI   1

$$


USA.gov is the U.S. government's official web portal to all federal, state and local government web resources and services.